Skip Page Navigation
NASA JPL Caltech
NASA Logo - Jet Propulsion Laboratory + View the NASA Portal
+ Center for Near-Earth Object Studies
JPL Home Earth Solar System Stars & Galaxies Technology
JPL Solar System Dynamics
BODIES ORBITS EPHEMERIDES TOOLS PHYSICAL DATA DISCOVERY FAQ SITE MAP
IMPORTANT: The SSD Announcement email list is now available. Major changes are coming in the near future, including possible hostname and/or URL changes. To be notified of such changes, subscribe to this email list.

Please visit this page for more details.


JPL Small-Body Database Browser
Search: [ help ]  
13776 (1998 UK1)
Classification: Main-belt Asteroid          SPK-ID: 2013776
Ephemeris | Orbit Diagram | Orbital Elements | Mission Design | Physical Parameters | Discovery Circumstances | Close-Approach Data ]

[ show orbit diagram ]
Orbital Elements at Epoch 2458600.5 (2019-Apr-27.0) TDB
Reference: JPL 22 (heliocentric ecliptic J2000)
 Element Value Uncertainty (1-sigma)   Units 
e .1506446942265094 3.4496e-08  
a 3.150438287836321 1.9835e-08 au
q 2.675841475285731 1.1116e-07 au
i 1.341558261413224 4.6931e-06 deg
node 190.7999069259166 0.00016548 deg
peri 287.8053603341548 0.00016618 deg
M 162.8920266173097 1.5628e-05 deg
tp 2457676.329252029840
(2016-Oct-14.82925203)
8.6454e-05 TDB
period 2042.466265404687
5.59
1.9289e-05
5.281e-08
d
yr
n .1762575010895815 1.6646e-09 deg/d
Q 3.625035100386912 2.2823e-08 au
  Orbit Determination Parameters
   # obs. used (total)      1174  
   data-arc span      9834 days (26.92 yr)  
   first obs. used      1992-10-01  
   last obs. used      2019-09-04  
   planetary ephem.      DE431  
   SB-pert. ephem.      SB431-N16  
   condition code      0  
   norm. resid. RMS      .55999  
   source      ORB  
   producer      Otto Matic  
   solution date      2019-Sep-24 01:16:00  

Additional Information
 Earth MOID = 1.69266 au 
 Jupiter MOID = 1.47164 au 
 T_jup = 3.190 
[ show covariance matrix ]

Ephemeris | Orbit Diagram | Orbital Elements | Mission Design | Physical Parameters | Discovery Circumstances | Close-Approach Data ]

Physical Parameter Table
Parameter Symbol Value Units Sigma Reference Notes
absolute magnitude H 14.2   n/a MPO431660  

13776 (1998 UK1)          Discovered 1998-Oct-19 by Zoltowski, F. B. at Woomera
Reference: 20000222/Numbers.arcLast Updated: 2004-04-19

[ show close-approach data ]
Alternate Designations
 1998 UK1 = 1995 GL8 
Ephemeris | Orbit Diagram | Orbital Elements | Mission Design | Physical Parameters | Discovery Circumstances | Close-Approach Data ]
ABOUT SSD CREDITS/AWARDS PRIVACY/COPYRIGHT GLOSSARY LINKS
FirstGov
(server date/time)  
NASA Home Page
Site Manager:   Ryan S. Park
Webmaster  Alan B. Chamberlin